This demonstration page uses our WeatherBlox Daily Observations layout. Learn more.

Hourly Observations for January 9, 2020

Temp ( °F °C ) Dew Point ( °F °C ) Humidity (%) Winds ( mph kmh ) Pressure ( in mb ) Visibility ( mi km ) Precip ( " mm )
12:15 am 00:15 Clear 30 -1 19 -7 64 64 NE 3 6 30.54 1034 10 16.0934 0 0
12:35 am 00:35 Clear 30 -1 19 -7 64 64 NE 3 6 30.55 1035 10 16.0934 0 0
12:55 am 00:55 Clear 30 -1 19 -7 64 64 N 7 11 30.56 1035 10 16.0934 0 0
1:15 am 01:15 Clear 30 -1 18 -8 59 59 NE 3 6 30.58 1036 10 16.0934 0 0
1:35 am 01:35 Clear 30 -1 18 -8 59 59 N 5 7 30.59 1036 10 16.0934 0 0
1:55 am 01:55 Clear 28 -2 18 -8 64 64 N 7 11 30.61 1036 10 16.0934 0 0
2:15 am 02:15 Clear 28 -2 18 -8 64 64 N 3 6 30.63 1037 10 16.0934 0 0
2:35 am 02:35 Clear 28 -2 18 -8 64 64 NNW 6 9 30.63 1037 10 16.0934 0 0
2:55 am 02:55 Clear 27 -3 18 -8 69 69 NNW 7 11 30.65 1038 10 16.0934 0 0
3:15 am 03:15 Clear 27 -3 18 -8 69 69 N 7 11 30.66 1038 10 16.0934 0 0
3:35 am 03:35 Clear 27 -3 18 -8 69 69 N 5 7 30.65 1038 10 16.0934 0 0
3:55 am 03:55 Clear 28 -2 18 -8 64 64 N 6 9 30.66 1038 10 16.0934 0 0
4:15 am 04:15 Clear 25 -4 18 -8 74 74 N 5 7 30.66 1038 10 16.0934 0 0
4:35 am 04:35 Clear 27 -3 18 -8 69 69 N 3 6 30.67 1039 10 16.0934 0 0
4:55 am 04:55 Clear 27 -3 18 -8 69 69 NNE 7 11 30.67 1039 10 16.0934 0 0
5:15 am 05:15 Clear 27 -3 18 -8 69 69 NNE 6 9 30.68 1039 10 16.0934 0 0
5:35 am 05:35 Clear 27 -3 18 -8 69 69 NNE 6 9 30.7 1040 10 16.0934 0 0
5:55 am 05:55 Clear 27 -3 18 -8 69 69 NNE 6 9 30.7 1040 10 16.0934 0 0
6:15 am 06:15 Clear 27 -3 18 -8 69 69 NE 3 6 30.71 1040 10 16.0934 0 0
6:35 am 06:35 Clear 27 -3 18 -8 69 69 NE 3 6 30.71 1040 10 16.0934 0 0
6:55 am 06:55 Clear 25 -4 18 -8 74 74 Calm 30.72 1040 10 16.0934 0 0
7:15 am 07:15 Clear 23 -5 18 -8 80 80 NNE 3 6 30.73 1041 10 16.0934 0 0
7:35 am 07:35 Sunny 25 -4 18 -8 74 74 NNE 5 7 30.73 1041 10 16.0934 0 0
7:55 am 07:55 Sunny 27 -3 18 -8 69 69 Calm 30.75 1041 10 16.0934 0 0
8:15 am 08:15 Sunny 25 -4 18 -8 74 74 N 7 11 30.76 1042 10 16.0934 0 0
8:35 am 08:35 Sunny 27 -3 18 -8 69 69 Calm 30.76 1042 10 16.0934 0 0
8:55 am 08:55 Sunny 28 -2 18 -8 64 64 SE 3 6 30.77 1042 10 16.0934 0 0
9:15 am 09:15 Sunny 28 -2 18 -8 64 64 Calm 30.78 1042 10 16.0934 0 0
9:35 am 09:35 Sunny 30 -1 18 -8 59 59 ENE 5 7 30.79 1043 10 16.0934 0 0
9:55 am 09:55 Sunny 30 -1 18 -8 59 59 NNE 5 7 30.79 1043 10 16.0934 0 0
10:15 am 10:15 Sunny 30 -1 18 -8 59 59 Calm 30.79 1043 10 16.0934 0 0
10:35 am 10:35 Sunny 32 0 18 -8 55 55 Calm 30.79 1043 10 16.0934 0 0
10:55 am 10:55 Sunny 32 0 18 -8 55 55 Calm 30.78 1042 10 16.0934 0 0
11:15 am 11:15 Sunny 32 0 18 -8 55 55 Calm 30.77 1042 10 16.0934 0 0
11:35 am 11:35 Sunny 32 0 18 -8 55 55 Calm 30.77 1042 10 16.0934 0 0
11:55 am 11:55 Sunny 32 0 18 -8 55 55 E 5 7 30.76 1042 10 16.0934 0 0
12:15 pm 12:15 Sunny 32 0 18 -8 55 55 Calm 30.75 1041 10 16.0934 0 0
12:35 pm 12:35 Sunny 34 1 19 -7 56 56 Calm 30.74 1041 10 16.0934 0 0
12:55 pm 12:55 Sunny 34 1 19 -7 56 56 Calm 30.73 1041 10 16.0934 0 0
1:15 pm 13:15 Sunny 36 2 21 -6 56 56 S 6 9 30.72 1040 10 16.0934 0 0
1:35 pm 13:35 Sunny 36 2 19 -7 52 52 S 5 7 30.72 1040 10 16.0934 0 0
1:55 pm 13:55 Sunny 36 2 19 -7 52 52 S 8 13 30.71 1040 10 16.0934 0 0
2:15 pm 14:15 Sunny 37 3 19 -7 48 48 SSE 8 13 30.71 1040 10 16.0934 0 0
2:35 pm 14:35 Sunny 37 3 19 -7 48 48 S 7 11 30.71 1040 10 16.0934 0 0
2:55 pm 14:55 Sunny 37 3 21 -6 52 52 SSW 7 11 30.7 1040 10 16.0934 0 0
3:15 pm 15:15 Sunny 37 3 21 -6 52 52 S 7 11 30.7 1040 10 16.0934 0 0
3:35 pm 15:35 Sunny 37 3 21 -6 52 52 S 9 15 30.7 1040 10 16.0934 0 0
3:55 pm 15:55 Sunny 37 3 21 -6 52 52 S 7 11 30.7 1040 10 16.0934 0 0
4:15 pm 16:15 Sunny 37 3 21 -6 52 52 S 8 13 30.69 1039 10 16.0934 0 0
4:35 pm 16:35 Sunny 37 3 21 -6 52 52 S 8 13 30.7 1040 10 16.0934 0 0
4:55 pm 16:55 Sunny 36 2 21 -6 56 56 S 9 15 30.69 1039 10 16.0934 0 0
5:15 pm 17:15 Clear 36 2 21 -6 56 56 SSE 7 11 30.7 1040 10 16.0934 0 0
5:35 pm 17:35 Clear 36 2 21 -6 56 56 SSE 5 7 30.69 1039 10 16.0934 0 0
5:55 pm 17:55 Clear 36 2 19 -7 52 52 S 12 19 30.7 1040 10 16.0934 0 0
6:15 pm 18:15 Clear 36 2 19 -7 52 52 S 9 15 30.7 1040 10 16.0934 0 0
6:35 pm 18:35 Clear 36 2 21 -6 56 56 S 7 11 30.7 1040 10 16.0934 0 0
6:55 pm 18:55 Clear 36 2 21 -6 56 56 S 9 15 30.7 1040 10 16.0934 0 0
7:15 pm 19:15 Clear 34 1 21 -6 60 60 S 8 13 30.71 1040 10 16.0934 0 0
7:35 pm 19:35 Clear 34 1 23 -5 65 65 S 8 13 30.71 1040 10 16.0934 0 0
7:55 pm 19:55 Clear 34 1 23 -5 65 65 S 8 13 30.71 1040 10 16.0934 0 0
8:15 pm 20:15 Clear 34 1 23 -5 65 65 S 7 11 30.71 1040 10 16.0934 0 0
8:35 pm 20:35 Clear 34 1 23 -5 65 65 S 9 15 30.71 1040 10 16.0934 0 0
8:55 pm 20:55 Clear 34 1 23 -5 65 65 S 10 17 30.7 1040 10 16.0934 0 0
9:15 pm 21:15 Clear 34 1 23 -5 65 65 S 12 19 30.69 1039 10 16.0934 0 0
9:35 pm 21:35 Clear 34 1 25 -4 70 70 S 7 11 30.7 1040 10 16.0934 0 0
9:55 pm 21:55 Clear 34 1 25 -4 70 70 S 9 15 30.69 1039 10 16.0934 0 0
10:15 pm 22:15 Clear 34 1 27 -3 75 75 S 8 13 30.69 1039 10 16.0934 0 0
10:35 pm 22:35 Clear 34 1 27 -3 75 75 S 9 15 30.68 1039 10 16.0934 0 0
10:55 pm 22:55 Clear 34 1 27 -3 75 75 S 8 13 30.68 1039 10 16.0934 0 0
11:15 pm 23:15 Clear 34 1 27 -3 75 75 S 9 15 30.67 1039 10 16.0934 0 0
11:35 pm 23:35 Clear 34 1 27 -3 75 75 S 9 15 30.65 1038 10 16.0934 0 0
11:55 pm 23:55 Clear 32 0 27 -3 80 80 S 6 9 30.64 1038 10 16.0934 0 0

Powered by AerisWeather